Theta_e
305 305 305 306 307 309 311 315 321 325 326 326 327 327 327 326 325 324 324 324 323 323 323 322 321 321 321 321 321 319 318 317 313 306 300 298 298 297 295 296 296 297 298
304 305 305 305 306 307 309 312 316 319 323 325 325 326 326 326 325 324 324 324 323 322 321 321 320 320 320 321 320 319 318 318 315 311 296 294 295 295 294 292 293 294 293
303 303 303 303 303 304 306 309 313 315 318 321 323 323 324 325 324 324 323 323 322 321 321 320 319 319 317 319 319 317 316 313 314 301 294 291 290 290 288 289 289 289 291
302 302 301 302 304 304 305 307 309 312 315 317 320 322 323 324 324 323 322 321 321 321 320 320 319 318 317 317 317 316 313 311 307 296 289 288 288 287 287 286 285 286 286
300 300 300 302 303 303 304 304 306 308 312 315 317 319 320 321 323 322 320 320 319 318 318 318 318 314 306 313 316 314 311 306 300 294 287 287 286 284 286 286 287 286 286
298 298 299 299 300 300 300 301 303 305 309 312 314 315 316 318 310 306 313 318 317 316 315 316 316 299 301 302 303 305 308 306 300 295 289 288 287 287 286 286 286 286 285
295 296 296 296 296 296 297 298 298 301 305 308 311 312 313 316 306 304 302 316 316 316 314 313 310 306 300 307 300 300 300 302 303 300 295 291 289 289 288 287 286 286 285
292 293 292 291 291 292 293 293 294 297 299 301 305 308 310 312 305 303 300 311 316 314 314 310 303 296 300 299 297 294 293 293 294 295 297 292 293 289 290 288 287 282 281
289 288 288 288 289 290 290 291 292 292 293 295 297 300 301 306 302 301 301 308 308 307 307 305 304 299 296 297 295 290 289 288 292 294 293 292 292 291 289 287 284 283 279
289 290 288 287 287 288 289 289 290 291 291 292 293 296 296 300 301 299 300 306 303 297 291 295 292 299 295 296 295 290 288 286 286 286 286 288 288 288 288 286 285 283 280
289 289 287 286 286 287 287 288 290 289 289 291 291 293 294 295 298 297 298 304 299 295 295 291 292 294 295 296 295 291 289 285 286 284 282 282 282 282 281 282 282 283 280
288 288 288 288 287 287 287 287 289 288 288 289 289 290 293 291 290 294 295 297 302 295 293 292 290 293 294 293 290 291 289 286 284 283 281 280 280 279 279 279 279 279 280
285 287 287 287 286 287 286 287 288 289 289 288 290 290 292 288 289 292 294 295 296 294 291 291 292 292 291 290 290 289 285 284 283 281 280 280 280 279 278 277 277 277 277
286 286 286 285 285 286 287 287 288 289 288 289 289 289 290 287 288 287 288 289 288 288 289 289 290 289 289 287 286 285 285 284 283 282 280 278 278 278 277 277 275 276 276
286 286 285 285 285 286 286 287 288 290 290 289 289 290 289 288 288 290 289 287 287 288 287 286 286 285 284 282 282 283 283 283 281 279 278 277 277 277 276 276 276 275 275
284 284 284 284 284 285 286 287 291 291 291 291 292 292 290 292 291 290 290 290 290 289 287 286 285 284 283 282 281 280 281 280 280 279 278 277 276 276 275 274 275 274 274
282 283 283 282 283 284 285 285 286 290 291 290 291 291 291 291 291 290 290 290 290 290 286 288 285 284 282 281 280 280 279 279 279 279 278 277 277 276 274 273 273 273 272
281 281 281 282 282 283 284 285 286 287 287 288 289 290 291 290 290 290 290 289 286 287 286 285 283 282 281 280 280 279 278 278 278 277 277 277 276 275 274 273 273 272 271
279 280 280 281 281 282 283 284 285 286 287 287 288 287 288 289 289 290 290 286 285 284 284 283 282 282 281 280 279 278 278 277 277 277 276 275 275 274 273 272 272 270 268
275 276 276 277 278 279 280 282 284 286 286 287 286 286 285 285 285 285 285 283 282 282 282 281 281 280 280 279 278 278 277 276 276 275 274 274 273 273 271 271 270 267 264
273 272 273 274 275 277 280 282 284 286 286 286 286 286 286 285 284 283 281 281 281 280 280 280 280 280 280 279 278 277 276 275 275 274 273 272 271 270 269 269 267 265 264
269 270 271 272 274 277 280 283 285 286 286 286 285 285 287 284 282 281 281 280 280 279 279 278 277 277 278 277 276 275 273 272 271 271 269 268 267 266 266 265 264 263 262
267 268 270 272 275 277 280 284 285 285 285 285 284 284 281 277 274 273 272 272 272 272 272 272 271 269 270 271 273 272 271 270 269 268 267 266 265 264 263 262 261 259 259
267 269 270 273 275 278 281 283 282 281 280 279 276 274 272 271 270 269 269 269 269 269 269 268 267 266 266 266 266 266 266 266 267 266 266 264 263 262 261 260 259 258 258
270 271 274 275 277 275 274 274 273 273 272 271 269 269 268 268 267 267 267 267 266 266 265 265 265 264 264 263 263 264 265 264 263 264 263 262 261 260 259 259 258 256 253
272 272 272 272 272 272 271 270 269 269 268 268 268 267 267 266 266 265 265 264 264 263 263 263 262 262 262 262 262 263 264 264 262 262 261 261 259 258 257 256 255 253 250
Wind_Speed
7 7 7 7 7 9 11 13 13 14 16 17 17 17 17 19 19 20 20 20 21 20 19 18 20 17 13 12 11 11 11 10 12 4 3 3 3 5 4 4 6 7 6
7 7 8 7 7 9 11 12 12 14 14 16 17 17 16 17 19 20 21 19 21 21 21 18 19 14 18 17 12 14 12 13 11 14 3 2 2 4 4 5 4 4 5
7 8 9 8 8 8 10 12 12 13 14 14 15 18 18 17 18 20 21 21 21 21 20 20 20 18 18 15 14 12 11 9 9 4 5 2 2 2 3 2 3 3 3
7 10 11 10 11 11 10 11 13 13 14 14 15 16 17 16 17 18 20 20 20 20 20 20 20 19 19 18 15 15 11 10 8 4 3 4 3 3 3 3 3 3 4
9 10 12 12 13 13 13 13 14 15 14 13 14 15 15 14 12 16 16 18 18 19 18 19 19 20 22 19 13 14 12 10 8 6 3 4 4 3 6 4 2 3 3
8 10 11 12 12 12 13 13 14 15 15 13 13 14 15 12 14 17 15 15 17 17 17 17 17 14 17 20 19 17 17 15 13 9 4 4 5 4 4 5 4 4 3
7 8 11 10 11 12 12 13 14 15 14 15 14 13 15 16 16 17 18 15 14 16 16 14 13 8 12 14 15 17 16 19 18 16 12 7 7 9 9 6 3 3 3
7 8 8 8 10 11 12 14 15 13 13 13 14 14 14 14 15 17 18 16 17 16 17 15 13 11 13 14 13 11 8 5 5 4 9 8 6 10 9 5 6 6 5
10 8 8 7 9 12 13 14 14 12 13 13 13 13 14 16 14 17 15 14 16 15 14 14 17 15 19 23 16 14 10 4 9 7 15 15 16 17 14 10 6 7 2
12 11 8 7 9 12 13 13 11 12 14 12 14 13 15 17 15 17 17 12 14 8 6 8 16 18 23 27 18 19 15 11 13 11 12 15 15 13 10 3 9 8 4
10 11 8 7 8 11 14 11 12 14 15 14 14 13 14 14 14 14 19 16 10 8 9 7 7 16 26 23 22 16 12 15 14 11 10 7 8 7 6 6 4 5 4
9 11 14 14 11 10 13 13 12 12 15 14 13 12 11 10 11 14 18 21 16 10 11 7 6 22 26 23 17 21 29 20 11 9 10 9 8 7 6 6 7 6 6
9 14 14 14 12 12 12 14 12 10 12 12 11 11 11 6 8 16 16 19 15 9 4 9 20 25 25 13 27 30 23 13 12 10 10 8 6 8 9 8 7 8 6
14 15 13 13 15 13 10 9 10 10 11 12 12 11 10 7 7 3 4 4 12 9 14 11 11 6 14 21 17 12 9 9 10 9 8 8 8 6 7 5 4 4 4
14 15 13 12 14 14 11 11 11 13 12 12 12 11 10 10 9 13 12 9 9 13 15 11 10 13 11 9 10 9 9 10 9 9 10 9 8 7 6 5 5 2 3
15 13 12 12 12 12 12 15 19 24 24 25 28 21 11 18 12 18 18 19 21 27 13 13 11 11 11 10 10 9 9 11 9 9 9 9 8 7 8 5 4 3 5
14 15 13 13 12 14 14 14 17 13 20 24 26 26 24 18 18 22 21 23 28 21 8 10 13 12 13 11 10 9 10 8 10 9 9 8 8 8 9 7 5 5 5
16 21 14 14 13 13 13 15 13 14 14 11 16 22 24 21 22 23 24 24 15 8 9 11 10 10 12 13 11 11 10 9 8 8 8 9 7 7 8 7 6 5 4
12 13 15 15 14 16 14 15 15 15 14 12 8 10 14 20 23 25 30 13 13 9 10 9 10 10 10 11 11 10 10 9 9 9 8 8 7 7 7 6 6 7 6
14 21 20 15 15 15 14 14 15 15 14 12 10 10 8 12 12 14 10 10 10 8 9 11 10 10 10 10 12 11 10 10 10 9 8 7 6 6 7 7 6 6 3
13 15 19 15 15 16 15 15 15 14 13 12 11 11 21 15 12 11 10 9 11 11 10 12 12 11 10 11 11 11 11 9 9 9 9 8 7 7 6 6 6 5 5
14 15 15 15 14 15 15 16 14 13 12 12 9 11 26 8 9 8 9 10 10 10 9 11 11 10 9 10 11 11 11 10 9 9 9 8 7 7 6 6 5 4 4
14 16 16 15 15 18 17 15 13 11 11 10 9 11 8 8 9 10 10 11 11 12 11 11 12 11 9 9 9 10 11 9 8 9 10 8 7 7 6 6 6 4 4
15 16 17 16 14 14 13 11 5 5 5 7 8 7 9 10 11 13 12 11 12 12 11 12 12 14 12 10 9 9 8 8 8 9 11 9 9 8 7 6 6 6 5
14 15 14 14 12 6 2 4 6 8 8 9 10 10 11 12 12 12 12 12 12 13 13 12 11 15 16 16 14 14 14 14 10 11 8 10 11 10 8 7 6 4 4
9 8 5 3 1 2 4 6 7 8 10 10 10 10 12 12 12 12 12 13 12 12 14 11 13 18 18 14 15 16 16 15 12 12 9 9 9 8 7 7 8 5 5
Wind_Direction
297 285 276 281 283 284 277 270 259 251 245 247 248 241 226 219 222 219 219 220 221 223 221 217 215 212 216 216 211 208 212 209 230 191 133 148 143 156 160 152 158 169 191
310 308 286 276 280 287 283 275 269 261 253 247 247 248 240 224 218 223 223 222 224 223 224 221 218 211 217 214 209 214 211 211 220 231 140 143 153 150 156 163 165 173 168
323 322 306 286 275 273 283 284 277 270 262 255 248 246 245 233 223 223 224 227 224 227 223 220 217 211 214 214 212 213 209 204 205 157 162 112 111 122 117 141 172 168 167
330 322 313 311 306 293 285 288 285 280 272 262 253 250 246 241 231 224 222 224 230 223 224 221 214 211 213 213 214 207 202 199 183 136 142 142 148 158 131 160 185 176 168
327 322 318 313 314 315 306 299 295 289 279 269 262 254 250 245 237 226 220 219 223 228 224 228 220 208 209 209 206 203 192 184 175 166 145 153 167 150 190 156 182 125 191
315 308 308 310 308 307 306 301 295 289 284 273 264 258 253 246 233 223 222 222 221 227 225 223 224 204 203 198 200 197 186 185 186 174 155 180 167 163 145 155 149 139 195
283 288 299 301 305 308 301 298 293 291 288 279 265 254 250 249 228 220 220 232 225 222 222 223 225 218 198 203 190 179 189 198 198 179 181 168 159 178 142 156 151 144 149
273 274 277 290 298 301 303 300 299 292 288 285 277 262 256 251 230 221 218 231 234 223 219 206 194 191 187 171 163 154 146 137 155 195 168 151 138 155 159 140 141 103 75
288 270 266 284 293 302 302 301 300 294 289 284 282 280 264 258 234 223 215 230 234 228 219 201 197 195 185 164 158 145 139 136 88 140 122 123 129 139 131 123 144 140 112
295 282 269 273 278 292 293 295 296 289 283 281 274 266 265 265 252 226 218 231 232 222 207 208 198 190 183 166 159 153 159 157 137 123 102 98 106 115 109 120 151 153 127
275 283 277 276 275 286 286 286 292 293 285 278 271 267 260 251 252 238 231 232 221 209 209 200 196 179 168 169 158 165 154 132 133 111 110 113 98 96 93 88 76 131 123
274 282 287 291 289 288 282 287 288 291 287 280 274 272 262 253 242 244 234 231 231 205 205 193 186 170 162 152 142 131 135 125 118 150 134 124 126 116 103 91 81 71 46
273 282 282 286 284 281 276 285 294 289 284 281 272 270 273 247 247 234 232 228 222 207 190 196 167 155 137 130 136 137 136 135 154 147 143 137 141 128 118 101 83 80 70
269 277 276 274 280 276 267 260 269 278 282 278 272 264 265 250 241 204 186 152 118 111 117 124 119 123 117 129 123 129 121 142 143 141 121 110 113 128 124 117 101 136 117
263 272 271 270 272 273 258 263 263 260 250 265 266 260 254 248 230 206 177 167 162 152 138 137 141 133 122 131 122 127 130 129 128 130 125 130 133 130 119 99 114 137 126
262 265 270 276 276 276 279 283 256 253 252 250 253 250 250 246 216 201 191 168 160 153 150 155 155 142 139 143 132 137 134 124 127 127 130 135 142 132 122 119 120 125 125
262 272 276 270 270 275 278 280 287 275 241 242 245 247 240 238 205 196 186 165 159 159 158 188 150 153 144 135 141 144 128 123 129 128 136 134 127 131 137 130 126 139 118
272 274 273 272 271 274 273 275 274 275 278 270 240 240 237 220 194 188 174 155 160 178 161 155 149 152 140 136 138 135 125 128 126 124 123 116 134 138 127 131 147 132 134
276 276 278 278 275 271 271 271 270 267 261 261 252 229 220 198 189 182 170 167 162 158 145 142 142 143 133 136 127 128 126 131 133 124 118 126 132 130 123 128 133 129 125
277 273 271 270 268 263 260 261 262 257 252 246 230 221 188 164 174 173 176 150 139 140 137 135 132 123 127 132 123 131 130 127 121 121 126 120 116 122 129 135 135 135 143
281 279 270 266 263 264 261 259 254 250 243 237 223 204 185 178 177 175 163 141 135 135 139 127 123 125 133 130 131 127 119 122 123 119 118 114 121 121 118 114 121 117 126
272 273 269 264 264 263 261 255 248 241 232 227 203 188 179 167 154 158 135 124 119 112 112 114 110 112 117 121 121 117 117 116 117 118 112 118 117 118 114 114 114 108 105
272 269 267 264 260 264 261 252 246 231 220 204 182 171 152 128 119 117 109 103 100 96 99 100 98 91 85 85 92 106 118 127 124 121 127 126 123 118 117 119 117 110 113
270 267 266 264 262 259 260 254 219 166 135 121 113 118 116 115 110 104 101 100 99 97 96 95 95 101 96 87 85 89 99 100 107 119 123 124 122 120 115 119 120 118 115
273 270 268 266 260 244 154 121 113 110 106 109 111 112 108 104 102 101 100 101 99 95 92 97 97 97 95 101 101 101 106 103 103 112 113 120 122 120 122 121 126 121 105
284 284 289 306 348 88 107 111 107 108 107 107 107 106 108 106 104 104 102 99 97 94 96 94 98 103 102 98 106 112 113 112 112 114 117 120 121 120 122 125 121 117 122